Location: Baili�vre
(50.0696°N, 4.2409°E)
Time: 04:21:26
(UTC+00:00)

BREEZE-M DEB (TANK) - Pass Details

Date: 08 August 2020
Orbit: 332 x 12043 km, 49.7° (Epoch: 18 September)

Event Time Altitude Azimuth Distance (km) Brightness Sun altitude
Rises 20:20:00 0° 293° (WNW) 5,042 8.7 -9.8°
Reaches altitude 10° 20:25:20 10° 278° (W) 2,737 6.6 -10.4°
Maximum altitude 20:28:55 17° 237° (WSW) 1,530 4.6 -10.9°
Drops below altitude 10° 20:31:08 10° 192° (SSW) 1,563 4.1 -11.1°
Enters shadow 20:31:41 - 183° (S) 1,696 4.3 -11.2°
